User: anonymous   Login
Location: Camp Creek
(33.9000°N, 111.8167°W)
Time: 03:14:17
(UTC-07:00)
Language:

Cosmos 1656 - Orbit

View from above orbital plane
View from above orbital plane
View from above satellite
View from above satellite

Ground track
Ground track

The orbit data is extracted from the following two-line orbital elements,

1 15755U 85042A   15024.51713759 -.00000181  00000-0 -61826-4 0  9542
2 15755 071.1123 045.9630 0037050 326.9290 032.9519 14.20335938536497
Epoch (UTC): 24 January 2015 12:24:40
Eccentricity: 0.0037050
inclination: 71.1123°
perigee height: 797 km
apogee height: 851 km
right ascension of ascending node: 45.9630°
argument of perigee: 326.9290°
revolutions per day: 14.20335938
mean anomaly at epoch: 32.9519°
orbit number at epoch: 53649

The dashed part of the orbit path shows where the satellite is in the earth's shadow,  

DLR